Time,TemperatureF,DewpointF,PressureIn,WindDirection,WindDirectionDegrees,WindSpeedMPH,WindSpeedGustMPH,Humidity,HourlyPrecipIn,Conditions,Clouds,dailyrainin,SolarRadiationWatts/m^2,SoftwareType,DateUTC
2013-01-13 00:05:00,42.8,41.7,30.15,SSW,205,4.0,7.0,96,0.00,,,0.00,0,Wunderground v.1.15,2013-01-13 05:05:00,
2013-01-13 00:09:00,42.8,41.7,30.15,SSW,205,2.0,2.0,96,0.00,,,0.00,0,Wunderground v.1.15,2013-01-13 05:09:00,
2013-01-13 00:15:00,42.9,41.8,30.15,SSW,205,1.0,7.0,96,0.00,,,0.00,0,Wunderground v.1.15,2013-01-13 05:15:00,
2013-01-13 00:25:00,43.0,41.9,30.15,SSW,205,2.0,7.0,96,0.00,,,0.00,0,Wunderground v.1.15,2013-01-13 05:25:00,
2013-01-13 00:30:00,43.0,41.9,30.15,SSW,205,2.0,2.0,96,0.00,,,0.00,0,Wunderground v.1.15,2013-01-13 05:30:00,
2013-01-13 00:35:00,43.0,41.9,30.15,SSW,205,1.0,7.0,96,0.00,,,0.00,0,Wunderground v.1.15,2013-01-13 05:35:00,
2013-01-13 00:40:00,42.9,41.8,30.15,SSW,205,1.0,1.0,96,0.00,,,0.00,0,Wunderground v.1.15,2013-01-13 05:40:00,
2013-01-13 00:45:00,42.8,41.7,30.15,SSW,205,1.0,3.0,96,0.00,,,0.00,0,Wunderground v.1.15,2013-01-13 05:45:00,
2013-01-13 00:50:00,42.8,41.7,30.15,SSW,205,1.0,1.0,96,0.00,,,0.00,0,Wunderground v.1.15,2013-01-13 05:50:00,
2013-01-13 01:00:00,42.7,41.6,30.15,SSW,205,1.0,7.0,96,0.00,,,0.00,0,Wunderground v.1.15,2013-01-13 06:00:00,
2013-01-13 01:05:00,42.8,41.7,30.15,SSW,205,2.0,7.0,96,0.00,,,0.00,0,Wunderground v.1.15,2013-01-13 06:05:00,
2013-01-13 01:15:00,42.9,41.8,30.14,SSW,209,5.0,7.0,96,0.00,,,0.00,0,Wunderground v.1.15,2013-01-13 06:15:00,
2013-01-13 01:20:00,42.9,41.8,30.15,SSW,209,4.0,4.0,96,0.00,,,0.00,0,Wunderground v.1.15,2013-01-13 06:20:00,
2013-01-13 01:30:00,42.9,41.8,30.15,SSW,209,2.0,2.0,96,0.00,,,0.00,0,Wunderground v.1.15,2013-01-13 06:30:00,
2013-01-13 01:35:00,42.9,41.8,30.15,SSW,209,3.0,5.0,96,0.00,,,0.00,0,Wunderground v.1.15,2013-01-13 06:35:00,
2013-01-13 01:40:00,43.0,41.9,30.15,SSW,209,1.0,7.0,96,0.00,,,0.00,0,Wunderground v.1.15,2013-01-13 06:40:00,
2013-01-13 01:50:00,43.1,42.0,30.16,SSW,209,3.0,3.0,96,0.00,,,0.00,0,Wunderground v.1.15,2013-01-13 06:50:00,
2013-01-13 01:55:00,42.9,41.8,30.15,SSW,209,3.0,7.0,96,0.00,,,0.00,0,Wunderground v.1.15,2013-01-13 06:55:00,
2013-01-13 02:00:00,42.8,41.7,30.15,SSW,209,2.0,7.0,96,0.00,,,0.00,0,Wunderground v.1.15,2013-01-13 07:00:00,
2013-01-13 02:05:00,42.8,41.7,30.15,SSW,209,1.0,7.0,96,0.00,,,0.00,0,Wunderground v.1.15,2013-01-13 07:05:00,
2013-01-13 02:10:00,42.9,41.8,30.15,SSW,209,2.0,7.0,96,0.00,,,0.00,0,Wunderground v.1.15,2013-01-13 07:10:00,
2013-01-13 02:15:00,43.0,41.9,30.16,SSW,209,3.0,7.0,96,0.00,,,0.00,0,Wunderground v.1.15,2013-01-13 07:15:00,
2013-01-13 02:20:00,43.0,41.9,30.16,SSW,209,5.0,5.0,96,0.00,,,0.00,0,Wunderground v.1.15,2013-01-13 07:20:00,
2013-01-13 02:30:00,43.0,41.9,30.16,SSW,209,3.0,7.0,96,0.00,,,0.00,0,Wunderground v.1.15,2013-01-13 07:30:00,
2013-01-13 02:40:00,43.0,41.9,30.16,SSW,209,3.0,3.0,96,0.00,,,0.00,0,Wunderground v.1.15,2013-01-13 07:40:00,
2013-01-13 02:45:00,43.0,41.9,30.16,SSW,209,3.0,7.0,96,0.00,,,0.00,0,Wunderground v.1.15,2013-01-13 07:45:00,
2013-01-13 02:55:00,43.1,42.0,30.16,SSW,209,2.0,7.0,96,0.00,,,0.00,0,Wunderground v.1.15,2013-01-13 07:55:00,
2013-01-13 03:00:00,43.1,42.0,30.16,SSW,209,2.0,7.0,96,0.00,,,0.00,0,Wunderground v.1.15,2013-01-13 08:00:00,
2013-01-13 03:05:00,43.1,42.0,30.16,SSW,209,3.0,7.0,96,0.00,,,0.00,0,Wunderground v.1.15,2013-01-13 08:05:00,
2013-01-13 03:15:00,43.0,41.9,30.16,SSW,209,2.0,7.0,96,0.00,,,0.00,0,Wunderground v.1.15,2013-01-13 08:15:00,
2013-01-13 03:20:00,42.9,41.8,30.15,SSW,209,1.0,7.0,96,0.00,,,0.00,0,Wunderground v.1.15,2013-01-13 08:20:00,
2013-01-13 03:30:00,42.9,42.1,30.16,SSW,209,1.0,7.0,97,0.00,,,0.00,0,Wunderground v.1.15,2013-01-13 08:30:00,
2013-01-13 03:40:00,42.9,42.1,30.16,SSW,209,2.0,7.0,97,0.00,,,0.00,0,Wunderground v.1.15,2013-01-13 08:40:00,
2013-01-13 03:45:00,42.8,42.0,30.16,SSW,209,1.0,7.0,97,0.00,,,0.00,0,Wunderground v.1.15,2013-01-13 08:45:00,
2013-01-13 03:55:00,42.7,41.6,30.15,SSW,209,1.0,7.0,96,0.00,,,0.00,0,Wunderground v.1.15,2013-01-13 08:55:00,
2013-01-13 04:00:00,42.6,41.5,30.15,SSW,209,2.0,2.0,96,0.00,,,0.00,0,Wunderground v.1.15,2013-01-13 09:00:00,
2013-01-13 04:10:00,42.5,41.4,30.14,SSW,209,1.0,1.0,96,0.00,,,0.00,0,Wunderground v.1.15,2013-01-13 09:10:00,
2013-01-13 04:15:00,42.5,41.4,30.14,SSW,209,1.0,7.0,96,0.00,,,0.01,0,Wunderground v.1.15,2013-01-13 09:15:00,
2013-01-13 04:20:00,42.4,41.3,30.14,SSW,209,2.0,2.0,96,0.00,,,0.01,0,Wunderground v.1.15,2013-01-13 09:20:00,
2013-01-13 04:30:00,42.3,41.2,30.13,SSW,209,2.0,7.0,96,0.00,,,0.01,0,Wunderground v.1.15,2013-01-13 09:30:00,
2013-01-13 04:35:00,42.2,41.4,30.13,SSW,209,2.0,7.0,97,0.00,,,0.01,0,Wunderground v.1.15,2013-01-13 09:35:00,
2013-01-13 04:40:00,42.2,41.4,30.13,SSW,209,2.0,7.0,97,0.00,,,0.01,0,Wunderground v.1.15,2013-01-13 09:40:00,
2013-01-13 04:50:00,42.2,41.1,30.13,SSW,209,3.0,7.0,96,0.00,,,0.01,0,Wunderground v.1.15,2013-01-13 09:50:00,
2013-01-13 04:55:00,42.3,41.2,30.13,SSW,209,3.0,7.0,96,0.00,,,0.01,0,Wunderground v.1.15,2013-01-13 09:55:00,
2013-01-13 05:05:00,42.3,41.5,30.13,SSW,209,3.0,7.0,97,0.00,,,0.01,0,Wunderground v.1.15,2013-01-13 10:05:00,
2013-01-13 05:15:00,42.4,41.6,30.12,SW,228,6.0,7.0,97,0.00,,,0.01,0,Wunderground v.1.15,2013-01-13 10:15:00,
2013-01-13 05:20:00,42.4,41.6,30.13,SW,228,6.0,8.0,97,0.00,,,0.01,0,Wunderground v.1.15,2013-01-13 10:20:00,
2013-01-13 05:30:00,42.4,41.6,30.13,SW,234,6.0,7.0,97,0.00,,,0.01,0,Wunderground v.1.15,2013-01-13 10:30:00,
2013-01-13 05:35:00,42.5,41.7,30.13,SW,235,4.0,7.0,97,0.00,,,0.01,0,Wunderground v.1.15,2013-01-13 10:35:00,
2013-01-13 05:40:00,42.5,41.7,30.13,WSW,243,4.0,7.0,97,0.00,,,0.01,0,Wunderground v.1.15,2013-01-13 10:40:00,
2013-01-13 05:50:00,42.6,41.8,30.13,WSW,247,5.0,7.0,97,0.00,,,0.01,0,Wunderground v.1.15,2013-01-13 10:50:00,
2013-01-13 05:55:00,42.6,41.8,30.13,WSW,247,5.0,7.0,97,0.00,,,0.01,0,Wunderground v.1.15,2013-01-13 10:55:00,
2013-01-13 06:05:00,42.6,41.8,30.13,WSW,248,4.0,7.0,97,0.00,,,0.01,0,Wunderground v.1.15,2013-01-13 11:05:00,
2013-01-13 06:10:00,42.7,41.9,30.13,WSW,248,2.0,7.0,97,0.00,,,0.01,0,Wunderground v.1.15,2013-01-13 11:10:00,
2013-01-13 06:20:00,42.7,41.9,30.13,WSW,248,2.0,2.0,97,0.00,,,0.01,0,Wunderground v.1.15,2013-01-13 11:20:00,
2013-01-13 06:25:00,42.7,41.9,30.13,WSW,248,2.0,4.0,97,0.00,,,0.01,0,Wunderground v.1.15,2013-01-13 11:25:00,
2013-01-13 06:35:00,42.7,41.9,30.13,WSW,248,3.0,7.0,97,0.00,,,0.01,0,Wunderground v.1.15,2013-01-13 11:35:00,
2013-01-13 06:45:00,42.7,41.9,30.12,WSW,248,2.0,7.0,97,0.00,,,0.01,0,Wunderground v.1.15,2013-01-13 11:45:00,
2013-01-13 06:50:00,42.9,42.1,30.13,WSW,248,2.0,2.0,97,0.00,,,0.01,0,Wunderground v.1.15,2013-01-13 11:50:00,
2013-01-13 07:00:00,43.2,42.4,30.13,WSW,248,3.0,7.0,97,0.00,,,0.01,0,Wunderground v.1.15,2013-01-13 12:00:00,
2013-01-13 07:05:00,43.3,42.5,30.13,WSW,248,3.0,7.0,97,0.00,,,0.01,0,Wunderground v.1.15,2013-01-13 12:05:00,
2013-01-13 07:10:00,43.4,42.6,30.14,WSW,248,4.0,4.0,97,0.00,,,0.01,0,Wunderground v.1.15,2013-01-13 12:10:00,
2013-01-13 07:20:00,43.6,42.8,30.14,WSW,248,2.0,7.0,97,0.00,,,0.01,0,Wunderground v.1.15,2013-01-13 12:20:00,
2013-01-13 07:25:00,43.7,42.9,30.13,WSW,248,3.0,7.0,97,0.00,,,0.01,5,Wunderground v.1.15,2013-01-13 12:25:00,
2013-01-13 07:35:00,43.9,43.1,30.14,WSW,248,5.0,8.0,97,0.00,,,0.01,16,Wunderground v.1.15,2013-01-13 12:35:00,
2013-01-13 07:45:00,44.1,43.3,30.14,WSW,248,3.0,7.0,97,0.00,,,0.01,21,Wunderground v.1.15,2013-01-13 12:45:00,
2013-01-13 07:50:00,44.2,43.4,30.15,WSW,248,4.0,4.0,97,0.00,,,0.01,16,Wunderground v.1.15,2013-01-13 12:50:00,
2013-01-13 07:55:00,44.3,43.5,30.15,WSW,248,4.0,7.0,97,0.00,,,0.01,28,Wunderground v.1.15,2013-01-13 12:55:00,
2013-01-13 08:05:00,44.3,43.5,30.15,WSW,250,4.0,7.0,97,0.00,,,0.01,33,Wunderground v.1.15,2013-01-13 13:05:00,
2013-01-13 08:10:00,44.4,43.6,30.15,WSW,252,5.0,5.0,97,0.00,,,0.01,46,Wunderground v.1.15,2013-01-13 13:10:00,
2013-01-13 08:20:00,44.5,43.7,30.15,WSW,254,6.0,6.0,97,0.00,,,0.01,47,Wunderground v.1.15,2013-01-13 13:20:00,
2013-01-13 08:30:00,44.6,43.8,30.14,WSW,257,5.0,7.0,97,0.00,,,0.01,67,Wunderground v.1.15,2013-01-13 13:30:00,
2013-01-13 08:35:00,44.7,43.9,30.14,WSW,257,5.0,7.0,97,0.00,,,0.01,70,Wunderground v.1.15,2013-01-13 13:35:00,
2013-01-13 08:45:00,44.9,44.1,30.15,WSW,257,5.0,7.0,97,0.00,,,0.01,90,Wunderground v.1.15,2013-01-13 13:45:00,
2013-01-13 08:50:00,45.0,44.2,30.15,WSW,258,6.0,8.0,97,0.00,,,0.01,113,Wunderground v.1.15,2013-01-13 13:50:00,
2013-01-13 08:55:00,45.0,44.2,30.15,West,264,6.0,8.0,97,0.00,,,0.01,88,Wunderground v.1.15,2013-01-13 13:55:00,
2013-01-13 09:05:00,45.1,44.3,30.15,WNW,303,7.0,8.0,97,0.00,,,0.01,113,Wunderground v.1.15,2013-01-13 14:05:00,
2013-01-13 09:15:00,45.3,44.5,30.15,NW,304,6.0,8.0,97,0.00,,,0.01,193,Wunderground v.1.15,2013-01-13 14:15:00,
2013-01-13 09:20:00,45.6,44.8,30.15,NW,304,6.0,7.0,97,0.00,,,0.01,153,Wunderground v.1.15,2013-01-13 14:20:00,
2013-01-13 09:30:00,45.9,45.1,30.15,NW,306,7.0,8.0,97,0.00,,,0.01,130,Wunderground v.1.15,2013-01-13 14:30:00,
2013-01-13 09:35:00,45.9,45.1,30.15,NW,306,8.0,8.0,97,0.00,,,0.01,130,Wunderground v.1.15,2013-01-13 14:35:00,
2013-01-13 09:45:00,46.2,45.4,30.15,NW,306,5.0,12.0,97,0.00,,,0.01,70,Wunderground v.1.15,2013-01-13 14:45:00,
2013-01-13 09:50:00,46.3,45.5,30.15,NW,306,5.0,7.0,97,0.00,,,0.01,97,Wunderground v.1.15,2013-01-13 14:50:00,
2013-01-13 10:00:00,46.5,45.7,30.15,NW,306,5.0,5.0,97,0.00,,,0.01,172,Wunderground v.1.15,2013-01-13 15:00:00,
2013-01-13 10:05:00,46.7,45.9,30.16,NW,305,4.0,7.0,97,0.00,,,0.01,148,Wunderground v.1.15,2013-01-13 15:05:00,
2013-01-13 10:15:00,47.0,46.2,30.16,NW,306,4.0,7.0,97,0.00,,,0.01,113,Wunderground v.1.15,2013-01-13 15:15:00,
2013-01-13 10:20:00,47.1,46.3,30.16,NW,306,4.0,4.0,97,0.00,,,0.01,123,Wunderground v.1.15,2013-01-13 15:20:00,
2013-01-13 10:30:00,47.5,46.7,30.16,NW,306,3.0,7.0,97,0.00,,,0.01,169,Wunderground v.1.15,2013-01-13 15:30:00,
2013-01-13 10:35:00,47.8,47.0,30.16,NW,306,4.0,7.0,97,0.00,,,0.01,239,Wunderground v.1.15,2013-01-13 15:35:00,
2013-01-13 10:45:00,48.1,47.3,30.15,NW,306,5.0,7.0,97,0.00,,,0.01,237,Wunderground v.1.15,2013-01-13 15:45:00,
2013-01-13 10:50:00,48.3,47.5,30.15,NW,306,4.0,7.0,97,0.00,,,0.01,236,Wunderground v.1.15,2013-01-13 15:50:00,
2013-01-13 11:00:00,48.7,47.9,30.14,NW,306,5.0,10.0,97,0.00,,,0.01,251,Wunderground v.1.15,2013-01-13 16:00:00,
2013-01-13 11:05:00,48.8,48.0,30.14,NW,306,5.0,10.0,97,0.00,,,0.01,188,Wunderground v.1.15,2013-01-13 16:05:00,
2013-01-13 11:15:00,48.8,48.0,30.13,NW,306,4.0,9.0,97,0.00,,,0.01,244,Wunderground v.1.15,2013-01-13 16:15:00,
2013-01-13 11:20:00,49.2,48.4,30.13,NW,306,4.0,7.0,97,0.00,,,0.01,376,Wunderground v.1.15,2013-01-13 16:20:00,
2013-01-13 11:25:00,49.1,48.3,30.12,NW,306,5.0,11.0,97,0.00,,,0.01,364,Wunderground v.1.15,2013-01-13 16:25:00,
2013-01-13 11:35:00,48.6,47.8,30.13,NW,306,7.0,7.0,97,0.00,,,0.01,178,Wunderground v.1.15,2013-01-13 16:35:00,
2013-01-13 11:45:00,48.6,47.8,30.12,NW,307,6.0,7.0,97,0.00,,,0.01,221,Wunderground v.1.15,2013-01-13 16:45:00,
2013-01-13 11:50:00,49.4,48.6,30.13,NW,307,5.0,5.0,97,0.00,,,0.01,132,Wunderground v.1.15,2013-01-13 16:50:00,
2013-01-13 12:00:00,49.8,49.0,30.11,NW,307,3.0,3.0,97,0.00,,,0.01,160,Wunderground v.1.15,2013-01-13 17:00:00,
2013-01-13 12:05:00,49.8,49.0,30.11,NW,307,3.0,7.0,97,0.00,,,0.01,346,Wunderground v.1.15,2013-01-13 17:05:00,
2013-01-13 12:15:00,48.8,47.7,30.11,NW,307,5.0,7.0,96,0.00,,,0.01,139,Wunderground v.1.15,2013-01-13 17:15:00,
2013-01-13 12:20:00,48.7,47.9,30.11,NW,307,5.0,5.0,97,0.00,,,0.01,156,Wunderground v.1.15,2013-01-13 17:20:00,
2013-01-13 12:30:00,49.4,48.6,30.11,NW,307,2.0,7.0,97,0.00,,,0.01,338,Wunderground v.1.15,2013-01-13 17:30:00,
2013-01-13 12:35:00,49.2,48.1,30.11,NW,307,2.0,7.0,96,0.00,,,0.01,223,Wunderground v.1.15,2013-01-13 17:35:00,
2013-01-13 12:45:00,49.0,47.9,30.11,NW,307,3.0,7.0,96,0.00,,,0.01,178,Wunderground v.1.15,2013-01-13 17:45:00,
2013-01-13 12:50:00,48.6,47.5,30.10,NW,307,4.0,7.0,96,0.00,,,0.01,153,Wunderground v.1.15,2013-01-13 17:50:00,
2013-01-13 13:00:00,48.4,47.3,30.09,NW,307,5.0,7.0,96,0.00,,,0.01,174,Wunderground v.1.15,2013-01-13 18:00:00,
2013-01-13 13:05:00,48.5,47.4,30.09,NW,307,5.0,7.0,96,0.00,,,0.01,144,Wunderground v.1.15,2013-01-13 18:05:00,
2013-01-13 13:15:00,48.8,47.7,30.09,NW,307,4.0,7.0,96,0.00,,,0.01,113,Wunderground v.1.15,2013-01-13 18:15:00,
2013-01-13 13:20:00,49.2,48.1,30.10,NW,307,3.0,3.0,96,0.00,,,0.01,190,Wunderground v.1.15,2013-01-13 18:20:00,
2013-01-13 13:30:00,49.7,48.6,30.09,NW,307,2.0,7.0,96,0.00,,,0.01,239,Wunderground v.1.15,2013-01-13 18:30:00,
2013-01-13 13:35:00,49.7,48.6,30.09,NW,307,2.0,7.0,96,0.00,,,0.01,206,Wunderground v.1.15,2013-01-13 18:35:00,
2013-01-13 13:45:00,49.2,48.1,30.08,NW,307,5.0,8.0,96,0.00,,,0.01,199,Wunderground v.1.15,2013-01-13 18:45:00,
2013-01-13 13:50:00,49.0,47.9,30.09,NW,307,6.0,7.0,96,0.00,,,0.01,174,Wunderground v.1.15,2013-01-13 18:50:00,
2013-01-13 13:55:00,49.2,48.1,30.09,NW,307,6.0,7.0,96,0.00,,,0.01,174,Wunderground v.1.15,2013-01-13 18:55:00,
2013-01-13 14:05:00,50.3,49.2,30.08,NW,307,4.0,8.0,96,0.00,,,0.01,155,Wunderground v.1.15,2013-01-13 19:05:00,
2013-01-13 14:15:00,49.2,47.8,30.08,NW,308,7.0,8.0,95,0.00,,,0.01,162,Wunderground v.1.15,2013-01-13 19:15:00,
2013-01-13 14:20:00,48.8,47.4,30.08,NW,309,7.0,7.0,95,0.00,,,0.01,144,Wunderground v.1.15,2013-01-13 19:20:00,
2013-01-13 14:25:00,48.8,47.4,30.08,NW,309,7.0,8.0,95,0.00,,,0.01,142,Wunderground v.1.15,2013-01-13 19:25:00,
2013-01-13 14:35:00,49.3,48.2,30.08,NW,306,7.0,7.0,96,0.00,,,0.01,142,Wunderground v.1.15,2013-01-13 19:35:00,
2013-01-13 14:40:00,49.2,48.1,30.07,NW,306,7.0,7.0,96,0.00,,,0.01,134,Wunderground v.1.15,2013-01-13 19:40:00,
2013-01-13 14:50:00,49.2,48.1,30.07,NW,306,7.0,8.0,96,0.00,,,0.01,107,Wunderground v.1.15,2013-01-13 19:50:00,
2013-01-13 14:55:00,49.2,48.1,30.06,NW,308,8.0,8.0,96,0.00,,,0.01,105,Wunderground v.1.15,2013-01-13 19:55:00,
2013-01-13 15:05:00,48.9,47.5,30.06,NW,309,8.0,9.0,95,0.00,,,0.01,97,Wunderground v.1.15,2013-01-13 20:05:00,
2013-01-13 15:15:00,49.1,48.0,30.06,NW,306,8.0,8.0,96,0.00,,,0.01,79,Wunderground v.1.15,2013-01-13 20:15:00,
2013-01-13 15:20:00,49.4,48.3,30.07,NW,306,8.0,8.0,96,0.00,,,0.01,70,Wunderground v.1.15,2013-01-13 20:20:00,
2013-01-13 15:30:00,50.2,49.1,30.08,NW,306,4.0,7.0,96,0.00,,,0.01,51,Wunderground v.1.15,2013-01-13 20:30:00,
2013-01-13 15:40:00,51.0,49.9,30.08,NW,306,3.0,7.0,96,0.00,,,0.01,49,Wunderground v.1.15,2013-01-13 20:40:00,
2013-01-13 15:45:00,51.2,50.1,30.08,NW,307,4.0,7.0,96,0.00,,,0.01,49,Wunderground v.1.15,2013-01-13 20:45:00,
2013-01-13 15:50:00,50.9,49.8,30.08,NW,306,4.0,7.0,96,0.00,,,0.01,40,Wunderground v.1.15,2013-01-13 20:50:00,
2013-01-13 16:00:00,51.3,50.2,30.08,NW,305,5.0,7.0,96,0.00,,,0.01,28,Wunderground v.1.15,2013-01-13 21:00:00,
2013-01-13 16:05:00,51.8,50.7,30.07,NW,305,4.0,7.0,96,0.00,,,0.01,26,Wunderground v.1.15,2013-01-13 21:05:00,
2013-01-13 16:15:00,50.7,49.3,30.07,NW,306,6.0,8.0,95,0.00,,,0.01,19,Wunderground v.1.15,2013-01-13 21:15:00,
2013-01-13 16:20:00,50.3,49.2,30.07,NW,305,7.0,8.0,96,0.00,,,0.01,19,Wunderground v.1.15,2013-01-13 21:20:00,
2013-01-13 16:30:00,49.3,47.9,30.07,NW,306,7.0,7.0,95,0.00,,,0.01,26,Wunderground v.1.15,2013-01-13 21:30:00,
2013-01-13 16:35:00,49.3,48.2,30.07,NW,306,6.0,7.0,96,0.00,,,0.01,16,Wunderground v.1.15,2013-01-13 21:35:00,
2013-01-13 16:45:00,50.0,48.9,30.07,NW,306,4.0,7.0,96,0.00,,,0.01,7,Wunderground v.1.15,2013-01-13 21:45:00,
2013-01-13 16:50:00,50.1,49.0,30.08,NW,306,4.0,7.0,96,0.00,,,0.01,5,Wunderground v.1.15,2013-01-13 21:50:00,
2013-01-13 17:00:00,50.2,49.1,30.07,NW,306,3.0,7.0,96,0.00,,,0.01,0,Wunderground v.1.15,2013-01-13 22:00:00,
2013-01-13 17:05:00,50.5,49.4,30.08,NW,306,3.0,7.0,96,0.00,,,0.01,0,Wunderground v.1.15,2013-01-13 22:05:00,
2013-01-13 17:15:00,51.7,50.9,30.07,NW,306,3.0,7.0,97,0.00,,,0.01,0,Wunderground v.1.15,2013-01-13 22:15:00,
2013-01-13 17:20:00,52.3,51.5,30.07,NW,305,5.0,5.0,97,0.00,,,0.01,0,Wunderground v.1.15,2013-01-13 22:20:00,
2013-01-13 17:30:00,52.9,51.8,30.07,NW,304,5.0,5.0,96,0.00,,,0.01,0,Wunderground v.1.15,2013-01-13 22:30:00,
2013-01-13 17:35:00,53.0,52.2,30.07,NW,304,5.0,7.0,97,0.00,,,0.01,0,Wunderground v.1.15,2013-01-13 22:35:00,
2013-01-13 17:45:00,53.1,52.0,30.06,NW,304,5.0,7.0,96,0.00,,,0.01,0,Wunderground v.1.15,2013-01-13 22:45:00,
2013-01-13 17:50:00,53.2,52.1,30.06,NW,304,4.0,7.0,96,0.00,,,0.01,0,Wunderground v.1.15,2013-01-13 22:50:00,
2013-01-13 18:00:00,53.2,52.1,30.06,NW,304,4.0,7.0,96,0.00,,,0.01,0,Wunderground v.1.15,2013-01-13 23:00:00,
2013-01-13 18:05:00,53.2,52.1,30.06,WNW,303,5.0,7.0,96,0.00,,,0.01,0,Wunderground v.1.15,2013-01-13 23:05:00,
2013-01-13 18:15:00,53.1,52.0,30.05,WNW,302,6.0,9.0,96,0.00,,,0.01,0,Wunderground v.1.15,2013-01-13 23:15:00,
2013-01-13 18:20:00,53.2,52.1,30.05,WNW,298,6.0,10.0,96,0.00,,,0.01,0,Wunderground v.1.15,2013-01-13 23:20:00,
2013-01-13 18:30:00,53.4,52.6,30.05,NW,306,6.0,6.0,97,0.00,,,0.01,0,Wunderground v.1.15,2013-01-13 23:30:00,
2013-01-13 18:35:00,53.6,52.8,30.04,WNW,298,7.0,7.0,97,0.00,,,0.01,0,Wunderground v.1.15,2013-01-13 23:35:00,
2013-01-13 18:40:00,53.6,52.5,30.04,WNW,300,7.0,7.0,96,0.00,,,0.01,0,Wunderground v.1.15,2013-01-13 23:40:00,
2013-01-13 18:50:00,53.5,52.4,30.04,WNW,297,8.0,8.0,96,0.00,,,0.01,0,Wunderground v.1.15,2013-01-13 23:50:00,
2013-01-13 19:00:00,53.5,52.7,30.04,NW,308,6.0,9.0,97,0.00,,,0.01,0,Wunderground v.1.15,2013-01-14 00:00:00,
2013-01-13 19:05:00,53.6,52.8,30.05,NW,317,7.0,9.0,97,0.00,,,0.01,0,Wunderground v.1.15,2013-01-14 00:05:00,
2013-01-13 19:10:00,53.8,53.0,30.05,WNW,298,7.0,7.0,97,0.00,,,0.01,0,Wunderground v.1.15,2013-01-14 00:10:00,
2013-01-13 19:20:00,54.1,53.3,30.05,NW,306,6.0,8.0,97,0.00,,,0.01,0,Wunderground v.1.15,2013-01-14 00:20:00,
2013-01-13 19:25:00,54.1,53.3,30.05,NNW,327,5.0,8.0,97,0.00,,,0.01,0,Wunderground v.1.15,2013-01-14 00:25:00,
2013-01-13 19:35:00,54.2,53.4,30.05,NNW,327,4.0,7.0,97,0.00,,,0.01,0,Wunderground v.1.15,2013-01-14 00:35:00,
2013-01-13 19:45:00,54.4,53.6,30.06,NNW,331,5.0,7.0,97,0.00,,,0.01,0,Wunderground v.1.15,2013-01-14 00:45:00,
2013-01-13 19:50:00,54.3,53.5,30.06,NNW,331,5.0,5.0,97,0.00,,,0.01,0,Wunderground v.1.15,2013-01-14 00:50:00,
2013-01-13 19:55:00,54.4,53.6,30.06,NNW,331,4.0,7.0,97,0.00,,,0.01,0,Wunderground v.1.15,2013-01-14 00:55:00,
2013-01-13 20:05:00,54.4,53.6,30.05,NNW,331,2.0,7.0,97,0.00,,,0.01,0,Wunderground v.1.15,2013-01-14 01:05:00,
2013-01-13 20:10:00,54.3,53.5,30.05,NNW,331,1.0,7.0,97,0.00,,,0.01,0,Wunderground v.1.15,2013-01-14 01:10:00,
2013-01-13 20:20:00,54.4,53.6,30.04,NNW,331,1.0,1.0,97,0.00,,,0.01,0,Wunderground v.1.15,2013-01-14 01:20:00,
2013-01-13 20:25:00,54.4,53.6,30.05,NNW,331,1.0,2.0,97,0.00,,,0.01,0,Wunderground v.1.15,2013-01-14 01:25:00,
2013-01-13 20:35:00,54.4,53.6,30.04,NNW,331,0.0,7.0,97,0.00,,,0.01,0,Wunderground v.1.15,2013-01-14 01:35:00,
2013-01-13 20:40:00,54.2,53.4,30.04,NNW,331,0.0,7.0,97,0.00,,,0.01,0,Wunderground v.1.15,2013-01-14 01:40:00,
2013-01-13 20:50:00,53.8,53.0,30.04,NNW,331,0.0,7.0,97,0.00,,,0.01,0,Wunderground v.1.15,2013-01-14 01:50:00,
2013-01-13 20:55:00,53.6,52.5,30.04,NNW,331,0.0,7.0,96,0.00,,,0.01,0,Wunderground v.1.15,2013-01-14 01:55:00,
2013-01-13 21:05:00,53.5,52.7,30.04,NNW,331,1.0,7.0,97,0.00,,,0.01,0,Wunderground v.1.15,2013-01-14 02:05:00,
2013-01-13 21:10:00,53.7,52.9,30.04,NNW,331,1.0,1.0,97,0.00,,,0.01,0,Wunderground v.1.15,2013-01-14 02:10:00,
2013-01-13 21:20:00,54.0,53.2,30.03,NNW,331,2.0,2.0,97,0.00,,,0.01,0,Wunderground v.1.15,2013-01-14 02:20:00,
2013-01-13 21:25:00,54.1,53.3,30.03,NNW,331,2.0,5.0,97,0.00,,,0.01,0,Wunderground v.1.15,2013-01-14 02:25:00,
2013-01-13 21:35:00,54.2,53.4,30.03,NNW,331,2.0,7.0,97,0.00,,,0.01,0,Wunderground v.1.15,2013-01-14 02:35:00,
2013-01-13 21:40:00,54.3,53.5,30.03,NNW,331,3.0,7.0,97,0.00,,,0.01,0,Wunderground v.1.15,2013-01-14 02:40:00,
2013-01-13 21:50:00,54.3,53.5,30.03,NNW,331,3.0,7.0,97,0.00,,,0.01,0,Wunderground v.1.15,2013-01-14 02:50:00,
2013-01-13 21:55:00,54.2,53.4,30.03,NNW,331,3.0,7.0,97,0.00,,,0.01,0,Wunderground v.1.15,2013-01-14 02:55:00,
2013-01-13 22:05:00,54.1,53.3,30.03,NNW,331,2.0,7.0,97,0.00,,,0.01,0,Wunderground v.1.15,2013-01-14 03:05:00,
2013-01-13 22:10:00,54.1,53.3,30.03,NNW,331,2.0,7.0,97,0.00,,,0.01,0,Wunderground v.1.15,2013-01-14 03:10:00,
2013-01-13 22:20:00,54.1,53.3,30.03,NNW,331,3.0,7.0,97,0.00,,,0.01,0,Wunderground v.1.15,2013-01-14 03:20:00,
2013-01-13 22:25:00,54.1,53.3,30.03,NNW,331,2.0,7.0,97,0.00,,,0.01,0,Wunderground v.1.15,2013-01-14 03:25:00,
2013-01-13 22:35:00,53.8,53.0,30.03,NNW,331,2.0,5.0,97,0.00,,,0.01,0,Wunderground v.1.15,2013-01-14 03:35:00,
2013-01-13 22:40:00,53.7,52.9,30.04,NNW,331,1.0,7.0,97,0.00,,,0.01,0,Wunderground v.1.15,2013-01-14 03:40:00,
2013-01-13 22:45:00,54.0,53.2,30.03,NNW,331,2.0,7.0,97,0.00,,,0.01,0,Wunderground v.1.15,2013-01-14 03:45:00,
2013-01-13 22:55:00,54.4,53.6,30.03,NNW,331,3.0,5.0,97,0.00,,,0.01,0,Wunderground v.1.15,2013-01-14 03:55:00,
2013-01-13 23:00:00,54.5,53.7,30.03,NNW,331,3.0,3.0,97,0.00,,,0.01,0,Wunderground v.1.15,2013-01-14 04:00:00,
2013-01-13 23:10:00,53.4,52.3,30.03,NNW,331,2.0,2.0,96,0.00,,,0.01,0,Wunderground v.1.15,2013-01-14 04:10:00,
2013-01-13 23:15:00,52.8,51.7,30.03,NNW,331,2.0,3.0,96,0.00,,,0.01,0,Wunderground v.1.15,2013-01-14 04:15:00,
2013-01-13 23:25:00,52.6,51.8,30.03,NNW,331,2.0,3.0,97,0.00,,,0.01,0,Wunderground v.1.15,2013-01-14 04:25:00,
2013-01-13 23:30:00,52.8,52.0,30.03,NNW,331,3.0,7.0,97,0.00,,,0.01,0,Wunderground v.1.15,2013-01-14 04:30:00,
2013-01-13 23:40:00,52.3,51.5,30.03,NNW,331,1.0,1.0,97,0.00,,,0.01,0,Wunderground v.1.15,2013-01-14 04:40:00,
2013-01-13 23:45:00,51.9,51.1,30.03,NNW,331,0.0,7.0,97,0.00,,,0.01,0,Wunderground v.1.15,2013-01-14 04:45:00,
2013-01-13 23:55:00,51.2,50.1,30.03,NNW,331,0.0,7.0,96,0.00,,,0.01,0,Wunderground v.1.15,2013-01-14 04:55:00,